Sparta, WI

12:13 PM CST on December 16, 2017 (GMT -0600)
Sparta-Fort McCoy

Weather History for KCMY - February, 2013

Change the Weather History Date:

Monday, February 25, 2013

  Actual Average Record
Temperature  
Mean Temperature 28 °F -  
Max Temperature 39 °F 33 °F 54 °F (1958)
Min Temperature 17 °F 11 °F -33 °F (1967)
Degree Days  
Heating Degree Days 37    
Moisture  
Dew Point 23 °F    
Average Humidity 81    
Maximum Humidity 100    
Minimum Humidity 56    
Precipitation  
Precipitation 0.00 in - - ()
Sea Level Pressure  
Sea Level Pressure 30.09 in    
Wind  
Wind Speed 0 mph (SSE)    
Max Wind Speed 6 mph    
Max Gust Speed -    
Visibility 9 miles    
Events Snow    
Averages and records for this station are not official NWS values.
T = Trace of Precipitation, MM = Missing Value Source: NWS Daily Summary

Daily Weather History Graph

Daily Weather History Graph

Search for Another Location

Airport or City:

Trip Planner

Search our weather history database for the weather conditions in past years. The results will help you decide how hot, cold, wet, or windy it might be!

Date:

Astronomy

Feb. 25, 2013 Rise Set
Actual Time 6:46 AM CST 5:46 PM CST
Civil Twilight 6:16 AM CST 6:15 PM CST
Nautical Twilight 5:43 AM CST 6:49 PM CST
Astronomical Twilight 5:10 AM CST 7:22 PM CST
Moon 6:02 PM CST (2/25) 6:15 AM CST (2/25)
Length of Visible Light 11h 58m
Length of Day
11h 00m
Full, 100% of the Moon is Illuminated
Feb 25
Full
Feb 25
Full
Mar 4
Last Quarter
Mar 11
New
Mar 19
First Quarter

Hourly Weather History & Observations

Time (CST) Temp. Windchill Dew Point Humidity Pressure Visibility Wind Dir Wind Speed Gust Speed Precip Events Conditions
12:15 AM 17.6 °F - 17.6 °F 100% 30.11 in 10.0 mi Calm Calm - N/A   Mostly Cloudy
12:35 AM 19.4 °F - 17.6 °F 93% 30.12 in 10.0 mi Calm Calm - N/A   Overcast
12:55 AM 19.4 °F - 17.6 °F 93% 30.11 in 10.0 mi Calm Calm - N/A   Overcast
1:15 AM 21.2 °F - 17.6 °F 86% 30.12 in 10.0 mi Calm Calm - N/A   Overcast
1:35 AM 21.2 °F - 17.6 °F 86% 30.12 in 10.0 mi Calm Calm - N/A   Overcast
1:55 AM 23.0 °F - 19.4 °F 86% 30.12 in 10.0 mi Calm Calm - N/A   Overcast
2:15 AM 23.0 °F - 19.4 °F 86% 30.12 in 10.0 mi Calm Calm - N/A   Overcast
2:35 AM 23.0 °F - 19.4 °F 86% 30.12 in 10.0 mi Calm Calm - N/A   Overcast
2:55 AM 23.0 °F - 19.4 °F 86% 30.11 in 10.0 mi Calm Calm - N/A   Overcast
3:15 AM 23.0 °F - 19.4 °F 86% 30.11 in 10.0 mi Calm Calm - N/A   Overcast
3:35 AM 23.0 °F - 19.4 °F 86% 30.10 in 10.0 mi Calm Calm - N/A   Mostly Cloudy
3:55 AM 23.0 °F - 19.4 °F 86% 30.10 in 10.0 mi Calm Calm - N/A   Scattered Clouds
4:15 AM 23.0 °F - 19.4 °F 86% 30.11 in 10.0 mi Calm Calm - N/A   Scattered Clouds
4:35 AM 23.0 °F - 19.4 °F 86% 30.12 in 10.0 mi Calm Calm - N/A   Scattered Clouds
4:55 AM 23.0 °F - 21.2 °F 93% 30.12 in 10.0 mi Calm Calm - N/A   Overcast
5:15 AM 23.0 °F - 21.2 °F 93% 30.11 in 10.0 mi Calm Calm - N/A   Scattered Clouds
5:35 AM 23.0 °F - 21.2 °F 93% 30.10 in 10.0 mi Calm Calm - N/A   Scattered Clouds
5:55 AM 23.0 °F - 21.2 °F 93% 30.12 in 10.0 mi Calm Calm - N/A   Mostly Cloudy
6:15 AM 24.8 °F - 21.2 °F 86% 30.12 in 10.0 mi Calm Calm - N/A   Mostly Cloudy
6:35 AM 24.8 °F - 21.2 °F 86% 30.12 in 10.0 mi Calm Calm - N/A   Mostly Cloudy
6:55 AM 24.8 °F - 21.2 °F 86% 30.12 in 10.0 mi Calm Calm - N/A   Overcast
7:15 AM 24.8 °F - 21.2 °F 86% 30.11 in 4.0 mi Calm Calm - N/A Snow Light Snow
7:35 AM 26.6 °F - 21.2 °F 80% 30.12 in 5.0 mi Calm Calm - N/A Snow Light Snow
7:55 AM 26.6 °F - 23.0 °F 86% 30.12 in 10.0 mi Calm Calm - N/A   Scattered Clouds
8:15 AM 26.6 °F - 23.0 °F 86% 30.12 in 10.0 mi Calm Calm - N/A   Mostly Cloudy
8:35 AM 28.4 °F - 23.0 °F 80% 30.12 in 10.0 mi Calm Calm - N/A   Overcast
8:55 AM 28.4 °F - 23.0 °F 80% 30.12 in 10.0 mi Calm Calm - N/A   Overcast
9:15 AM 30.2 °F - 23.0 °F 75% 30.12 in 10.0 mi Calm Calm - N/A   Overcast
9:35 AM 30.2 °F 25.4 °F 23.0 °F 75% 30.12 in 10.0 mi South 4.6 mph - N/A   Overcast
9:55 AM 30.2 °F 26.7 °F 23.0 °F 75% 30.12 in 10.0 mi SSE 3.5 mph - N/A   Overcast
10:15 AM 32.0 °F - 23.0 °F 69% 30.12 in 10.0 mi Calm Calm - N/A   Scattered Clouds
10:35 AM 32.0 °F - 23.0 °F 69% 30.12 in 10.0 mi Calm Calm - N/A   Scattered Clouds
10:55 AM 32.0 °F - 23.0 °F 69% 30.12 in 10.0 mi Calm Calm - N/A   Scattered Clouds
11:15 AM 33.8 °F - 23.0 °F 65% 30.11 in 10.0 mi Calm Calm - N/A   Clear
11:35 AM 33.8 °F 30.8 °F 23.0 °F 65% 30.11 in 10.0 mi SE 3.5 mph - N/A   Scattered Clouds
11:55 AM 35.6 °F 32.8 °F 24.8 °F 65% 30.11 in 10.0 mi SSE 3.5 mph - N/A   Mostly Cloudy
12:15 PM 35.6 °F 31.7 °F 24.8 °F 65% 30.10 in 10.0 mi SSE 4.6 mph - N/A   Scattered Clouds
12:35 PM 35.6 °F - 24.8 °F 65% 30.09 in 10.0 mi Calm Calm - N/A   Mostly Cloudy
12:55 PM 35.6 °F 30.7 °F 24.8 °F 65% 30.09 in 10.0 mi South 5.8 mph - N/A   Overcast
1:15 PM 35.6 °F 32.8 °F 24.8 °F 65% 30.08 in 10.0 mi South 3.5 mph - N/A   Overcast
1:35 PM 35.6 °F 32.8 °F 24.8 °F 65% 30.08 in 10.0 mi South 3.5 mph - N/A   Overcast
1:55 PM 37.4 °F - 24.8 °F 60% 30.08 in 10.0 mi Calm Calm - N/A   Overcast
2:15 PM 37.4 °F 34.9 °F 24.8 °F 60% 30.07 in 10.0 mi South 3.5 mph - N/A   Overcast
2:35 PM 37.4 °F - 24.8 °F 60% 30.07 in 10.0 mi Calm Calm - N/A   Overcast
3:15 PM 37.4 °F - 24.8 °F 60% 30.06 in 10.0 mi Calm Calm - N/A   Scattered Clouds
3:35 PM 39.2 °F - 24.8 °F 56% 30.07 in 10.0 mi Calm Calm - N/A   Mostly Cloudy
3:55 PM 37.4 °F - 26.6 °F 65% 30.06 in 10.0 mi Calm Calm - N/A   Mostly Cloudy
4:15 PM 37.4 °F 34.9 °F 26.6 °F 65% 30.07 in 10.0 mi South 3.5 mph - N/A   Scattered Clouds
4:35 PM 37.4 °F 34.9 °F 26.6 °F 65% 30.06 in 10.0 mi SE 3.5 mph - N/A   Scattered Clouds
4:55 PM 35.6 °F - 26.6 °F 70% 30.06 in 10.0 mi Calm Calm - N/A   Mostly Cloudy
5:15 PM 37.4 °F - 24.8 °F 60% 30.05 in 10.0 mi Calm Calm - N/A   Scattered Clouds
5:35 PM 35.6 °F 32.8 °F 26.6 °F 70% 30.06 in 10.0 mi SSE 3.5 mph - N/A   Clear
5:55 PM 33.8 °F - 26.6 °F 75% 30.06 in 10.0 mi Calm Calm - N/A   Clear
6:15 PM 32.0 °F - 24.8 °F 75% 30.06 in 10.0 mi Calm Calm - N/A   Clear
6:35 PM 32.0 °F - 26.6 °F 80% 30.06 in 10.0 mi Calm Calm - N/A   Clear
6:55 PM 30.2 °F - 26.6 °F 86% 30.07 in 10.0 mi Calm Calm - N/A   Clear
7:15 PM 28.4 °F - 24.8 °F 86% 30.07 in 10.0 mi Calm Calm - N/A   Clear
7:35 PM 28.4 °F - 23.0 °F 80% 30.06 in 10.0 mi Calm Calm - N/A   Clear
7:55 PM 28.4 °F - 24.8 °F 86% 30.06 in 10.0 mi Calm Calm - N/A   Clear
8:15 PM 26.6 °F - 23.0 °F 86% 30.05 in 10.0 mi Calm Calm - N/A   Clear
8:35 PM 26.6 °F - 23.0 °F 86% 30.05 in 7.0 mi Calm Calm - N/A   Clear
8:55 PM 24.8 °F - 23.0 °F 93% 30.04 in 7.0 mi Calm Calm - N/A   Clear
9:15 PM 23.0 °F - 23.0 °F 100% 30.04 in 7.0 mi Calm Calm - N/A   Clear
9:35 PM 23.0 °F - 23.0 °F 100% 30.03 in 5.0 mi Calm Calm - N/A   Clear
9:55 PM 23.0 °F - 23.0 °F 100% 30.04 in 4.0 mi Calm Calm - N/A   Clear
10:15 PM 21.2 °F - 21.2 °F 100% 30.05 in 5.0 mi Calm Calm - N/A   Clear
10:35 PM 21.2 °F - 21.2 °F 100% 30.06 in 5.0 mi Calm Calm - N/A   Clear
10:55 PM 21.2 °F 16.4 °F 19.4 °F 93% 30.06 in 7.0 mi East 3.5 mph - N/A   Clear
11:15 PM 21.2 °F - 21.2 °F 100% 30.05 in 7.0 mi Calm Calm - N/A   Clear
11:35 PM 21.2 °F - 19.4 °F 93% 30.05 in 5.0 mi Calm Calm - N/A   Clear
11:55 PM 21.2 °F - 21.2 °F 100% 30.04 in 5.0 mi Calm Calm - N/A   Clear